Back to catalog

STARLINK-4766

AliveCommunicationsVLEO
NORAD 53840·PAYLOAD·🇺🇸 United States

Launched Sep 19, 2022 from Cape Canaveral Space Force Station

Loading…

Next Passes (next 24 hours)

TLE

FreshSource: CelesTrak SupGP

Epoch: Sep 14, 2026, 13:46 UTC

1 53840C 22114Y   26257.57409722  .00043699  00000+0  14055-2 0  2572
2 53840  53.1577 151.5413 0001297  94.6652  18.3874 15.31674321    16

Track STARLINK-4766 in real time with AllMySat

Download on the App Store